This is the latest recevied weather packets stored in our database for station/object N4RCT. If no packets are shown the sender has not sent any weather packets the latest 10 day(s).
| Time | Temp. | Humidity | Pressure | Rain* | Wind** | Luminosity | Snow |
|---|---|---|---|---|---|---|---|
| 1778008086 | 26.67° C | 41% | 1013.3 hPa | 0 mm | - | 714 W/m² | - |
| 1778007782 | 25.56° C | 40% | 1013.3 hPa | 0 mm | - | 788 W/m² | - |
| 1778007478 | 25° C | 45% | 1013.3 hPa | 0 mm | - | 755 W/m² | - |
| 1778007174 | 25.56° C | 42% | 1013.3 hPa | 0 mm | - | 462 W/m² | - |
| 1778006870 | 25.56° C | 43% | 1013.5 hPa | 0 mm | - | 442 W/m² | - |
| 1778006568 | 25.56° C | 42% | 1013.1 hPa | 0 mm | - | 672 W/m² | - |
| 1778006265 | 25° C | 40% | 1013.3 hPa | 0 mm | - | 504 W/m² | - |
| 1778005962 | 25.56° C | 42% | 1013.1 hPa | 0 mm | - | 340 W/m² | - |
| 1778005659 | 25.56° C | 41% | 1013.2 hPa | 0 mm | - | 394 W/m² | - |
| 1778005355 | 26.11° C | 42% | 1013.2 hPa | 0 mm | - | 736 W/m² | - |
| 1778005052 | 26.11° C | 43% | 1013.3 hPa | 0 mm | - | 691 W/m² | - |
| 1778004750 | 26.11° C | 45% | 1013.1 hPa | 0 mm | - | 632 W/m² | - |
| 1778004446 | 25.56° C | 45% | 1013.3 hPa | 0 mm | - | 825 W/m² | - |
| 1778004143 | 25° C | 45% | 1013.2 hPa | 0 mm | - | 707 W/m² | - |
| 1778003839 | 25° C | 45% | 1013.5 hPa | 0 mm | - | 568 W/m² | - |
| 1778003536 | 26.11° C | 42% | 1013.5 hPa | 0 mm | - | 367 W/m² | - |
| 1778003232 | 25.56° C | 41% | 1013.3 hPa | 0 mm | - | 801 W/m² | - |
| 1778002929 | 25.56° C | 42% | 1013.8 hPa | 0 mm | - | 825 W/m² | - |
| 1778002625 | 25.56° C | 41% | 1014.3 hPa | 0 mm | - | 691 W/m² | - |
| 1778002322 | 25.56° C | 40% | 1014.1 hPa | 0 mm | - | 637 W/m² | - |
| 1778002019 | 25.56° C | 41% | 1014 hPa | 0 mm | - | 790 W/m² | - |
| 1778001716 | 26.11° C | 42% | 1014.3 hPa | 0 mm | - | 567 W/m² | - |
| 1778001416 | 25.56° C | 45% | 1014.2 hPa | 0 mm | - | 728 W/m² | - |
| 1778001113 | 25° C | 48% | 1014.3 hPa | 0 mm | - | 705 W/m² | - |
| 1778000810 | 25° C | 47% | 1014.2 hPa | 0 mm | - | 323 W/m² | - |
* Rain latest hour (hover to see other rain measurements)
** Current wind speed in m/s (hover to see current wind gust speed)